カタログに戻る

NOAA 16 DEB

運用中SSO
NORAD 42422·DEBRIS·🇺🇸 United States

打ち上げ Sep 21, 2000 から Vandenberg Space Force Base

Loading…

次のパス (今後24時間)

TLE

最新Source: Space-Track

元期: Sep 14, 2026, 03:42 UTC

1 42422U 00055TS  26257.15431997  .00003263  00000-0  11480-2 0  9995
2 42422  98.7842   5.3803 0010688  41.8490 318.3510 14.35559490539779

AllMySatでNOAA 16 DEBをリアルタイム追跡

Download on the App Store